Stations météo

réclame
Mon MeteoGroup
Zwiesel, Allemagne (10796): Température de l'air & dewpoint: 14.06.2018 07:00:00 - 20.06.2018 07:00:00 (CEST)Zwiesel, Allemagne (10796): Température de l'air 5cm & Température de l'air -5cm: 14.06.2018 07:00:00 - 20.06.2018 07:00:00 (CEST)Zwiesel, Allemagne (10796): Température de l'air -20cm & Température de l'air -100cm: 14.06.2018 07:00:00 - 20.06.2018 07:00:00 (CEST)Zwiesel, Allemagne (10796): Vitesse du vent & gusts: 14.06.2018 07:00:00 - 20.06.2018 07:00:00 (CEST)Zwiesel, Allemagne (10796): Direction du vent: 14.06.2018 07:00:00 - 20.06.2018 07:00:00 (CEST)Zwiesel, Allemagne (10796): reduced air pressure: 14.06.2018 07:00:00 - 20.06.2018 07:00:00 (CEST)Zwiesel, Allemagne (10796): visibility: 14.06.2018 07:00:00 - 20.06.2018 07:00:00 (CEST)Zwiesel, Allemagne (10796): Ensoleillement: 14.06.2018 07:00:00 - 20.06.2018 07:00:00 (CEST)Zwiesel, Allemagne (10796): Quantités de précipitations: 14.06.2018 07:00:00 - 20.06.2018 07:00:00 (CEST)
Date & Time tt [°C] td [°C] tt 5cm [°C] tt -5cm [°C] tt -20cm [°C] tt -100cm [°C] ff [km/h] ff [knt] fx [km/h] fx [knt] dd ppp [hPa] vv [km] sd [min] rr [mm]
20.06.2018 07:00:00 16,2 13,6 16,7 17,5 17,5 14,7 3 1 5 3 NNE 1023,7 29 0 0,0
20.06.2018 06:00:00 15,5 13,6 15,2 17,5 17,6 14,7 3 1 6 3 N 1023,8 18 0 0,0
20.06.2018 05:00:00 15,4 13,8 15,0 17,7 17,8 14,7 4 2 4 2 N 1023,8 22 0 0,0
20.06.2018 04:00:00 15,6 13,9 15,5 17,9 17,9 14,7 3 2 9 5 NNW 1023,7 27 0 0,0
20.06.2018 03:00:00 15,9 14,0 15,4 18,2 18,0 14,7 0 0 5 3 N 1023,9 22 0 0,0
20.06.2018 02:00:00 16,2 14,0 15,7 18,5 18,1 14,7 4 2 7 4 NE 1024,0 24 0 0,0
20.06.2018 01:00:00 16,6 14,1 16,2 18,8 18,3 14,7 4 2 10 5 N 1023,9 31 0 0,0
20.06.2018 00:00:00 16,7 14,3 16,4 19,1 18,3 14,7 0 0 5 3 N 1024,1 29 0 0,0
19.06.2018 23:00:00 17,2 14,2 16,7 19,6 18,4 14,7 1 1 5 3 SSW 1023,9 33 0 0,0
19.06.2018 22:00:00 18,0 14,2 17,2 20,0 18,4 14,7 2 1 5 3 SSE 1023,6 34 0 0,0
19.06.2018 21:00:00 18,9 13,7 18,6 20,5 18,4 14,7 3 2 9 5 SW 1022,8 38 0 0,0
19.06.2018 20:00:00 19,7 13,4 19,8 21,0 18,3 14,7 6 3 11 6 W 1022,6 15 1 0,0
19.06.2018 19:00:00 20,3 12,9 21,5 21,3 18,2 14,7 6 3 14 7 WSW 1022,6 43 0 0,0
19.06.2018 18:00:00 20,4 13,0 22,5 21,3 18,0 14,7 5 3 10 6 SW 1022,6 43 1 0,0
19.06.2018 17:00:00 20,0 12,6 22,3 21,0 17,9 14,7 6 3 16 9 WSW 1022,9 40 0 0,0
19.06.2018 16:00:00 20,0 12,3 22,3 20,7 17,8 14,6 3 1 11 6 ESE 1023,1 48 0 0,0
19.06.2018 15:00:00 18,7 12,1 19,7 20,5 17,6 14,6 8 4 18 10 WSW 1023,8 43 0 0,0
19.06.2018 14:00:00 19,1 12,3 21,6 20,2 17,5 14,6 11 6 18 10 WSW 1023,6 47 0 0,0
19.06.2018 13:00:00 18,7 11,9 20,3 19,8 17,4 14,6 9 5 16 9 W 1023,9 40 0 0,0
19.06.2018 12:00:00 18,2 11,3 19,0 19,9 17,2 14,6 10 5 23 12 WNW 1023,8 41 1 0,0
19.06.2018 11:00:00 18,3 11,0 19,9 19,6 17,1 14,6 17 9 24 13 W 1023,7 41 0 0,0
19.06.2018 10:00:00 18,7 11,2 20,9 19,3 17,0 14,6 13 7 29 16 W 1023,4 43 22 0,0
19.06.2018 09:00:00 18,3 11,2 22,4 18,0 17,0 14,6 4 2 8 4 SE 1023,4 18 60 0,0
19.06.2018 08:00:00 15,4 10,0 17,9 16,5 17,2 14,6 2 1 5 3 W 1024,0 28 60 0,0
19.06.2018 07:00:00 12,6 9,7 13,0 15,7 17,4 14,6 3 2 6 4 N 1024,6 22 23 0,0
19.06.2018 06:00:00 11,4 10,4 11,8 15,7 17,7 14,6 2 1 5 3 SSW 1024,7 21 0 0,0
19.06.2018 05:00:00 11,1 10,2 11,1 15,8 18,0 14,6 0 0 6 3 N 1024,2 16 0 0,0
19.06.2018 04:00:00 10,3 9,6 10,2 15,9 18,3 14,6 1 1 5 3 NW 1024,4 18 0 0,0
19.06.2018 03:00:00 10,6 9,8 8,5 16,6 18,6 14,6 2 1 5 3 S 1024,4 19 0 0,0
19.06.2018 02:00:00 11,7 10,5 9,1 17,4 18,9 14,6 2 1 4 2 SE 1024,1 30 0 0,0
19.06.2018 01:00:00 12,3 10,7 9,8 18,3 19,2 14,6 2 1 6 3 NNW 1023,9 34 0 0,0
19.06.2018 00:00:00 13,6 11,3 11,0 19,3 19,4 14,6 2 1 4 2 E 1023,5 43 0 0,0
18.06.2018 23:00:00 15,2 12,0 13,0 20,1 19,6 14,6 3 1 6 3 NE 1022,9 45 0 0,0
18.06.2018 22:00:00 16,3 12,2 15,3 20,9 19,7 14,6 3 2 4 2 NNE 1022,0 63 0 0,0
18.06.2018 21:00:00 17,4 11,9 16,3 21,9 19,8 14,6 0 0 8 5 N 1020,9 69 0 0,0
18.06.2018 20:00:00 19,4 10,7 19,2 22,6 19,8 14,6 5 3 14 8 NNW 1020,3 70 1 0,0
18.06.2018 19:00:00 20,0 10,6 20,6 23,3 19,6 14,6 6 4 20 11 WNW 1020,0 66 0 0,0
18.06.2018 18:00:00 20,1 10,1 21,0 24,2 19,4 14,6 11 6 21 11 W 1020,0 70 0 0,0
18.06.2018 17:00:00 20,8 11,0 23,5 24,8 19,1 14,6 9 5 23 12 W 1019,8 64 10 0,0
18.06.2018 16:00:00 20,2 10,2 22,0 25,5 18,6 14,6 13 7 28 15 W 1020,1 43 11 0,0
18.06.2018 15:00:00 21,4 10,7 27,0 25,4 18,1 14,6 16 9 28 15 W 1019,6 28 52 0,0
18.06.2018 14:00:00 21,3 10,7 27,6 24,1 17,7 14,6 11 6 26 14 WSW 1019,7 30 52 0,0
18.06.2018 13:00:00 19,9 9,7 23,8 22,8 17,3 14,6 14 8 24 13 WSW 1020,4 48 37 0,0
18.06.2018 12:00:00 20,1 10,5 25,8 21,8 17,0 14,6 12 6 40 21 WSW 1020,5 22 52 0,0
18.06.2018 11:00:00 19,6 10,3 24,6 20,3 16,8 14,6 12 6 22 12 W 1020,6 16 54 0,0
18.06.2018 10:00:00 17,9 10,4 20,7 19,0 16,8 14,6 13 7 26 14 W 1020,9 30 43 0,0
18.06.2018 09:00:00 17,5 11,2 21,2 17,6 16,8 14,6 6 3 11 6 E 1020,3 43 60 0,0
18.06.2018 08:00:00 15,2 10,2 17,9 16,1 17,0 14,6 3 1 6 3 SE 1020,9 34 27 0,0
18.06.2018 07:00:00 12,5 11,2 12,7 15,8 17,2 14,6 2 1 4 2 S 1021,4 25 0 0,0
18.06.2018 06:00:00 11,9 11,0 11,7 15,9 17,4 14,6 3 1 4 2 SSW 1021,5 15 0 0,0
18.06.2018 05:00:00 11,6 10,6 11,2 16,1 17,6 14,6 3 2 8 4 N 1021,2 15 0 0,0
18.06.2018 04:00:00 12,2 11,0 11,7 16,4 17,9 14,6 5 3 8 4 ESE 1020,8 20 0 0,0
18.06.2018 03:00:00 12,0 11,0 11,5 16,7 18,1 14,6 0 0 5 3 N 1020,8 12 0 0,0
18.06.2018 02:00:00 12,4 11,1 11,9 17,1 18,4 14,6 4 2 6 3 SE 1020,4 17 0 0,0
18.06.2018 01:00:00 13,1 11,5 11,7 17,5 18,7 14,6 4 2 10 6 NNE 1020,0 19 0 0,0
18.06.2018 00:00:00 13,1 11,6 10,3 18,3 19,0 14,6 2 1 6 3 NW 1019,9 21 0 0,0
17.06.2018 23:00:00 14,2 11,9 11,0 19,2 19,2 14,6 3 1 10 6 W 1019,1 26 0 0,0
17.06.2018 22:00:00 15,9 12,0 14,0 20,3 19,3 14,6 4 2 14 8 NNE 1018,2 43 0 0,0
17.06.2018 21:00:00 17,7 12,8 17,3 21,1 19,4 14,6 9 5 21 11 N 1017,0 40 13 0,0
17.06.2018 20:00:00 18,4 12,3 18,3 22,1 19,4 14,6 11 6 27 15 N 1016,4 45 0 0,0
17.06.2018 19:00:00 19,3 12,4 20,0 23,0 19,3 14,6 11 6 21 11 N 1015,9 40 6 0,0
17.06.2018 18:00:00 19,7 11,9 21,3 23,4 19,1 14,6 6 3 25 14 N 1015,7 39 0 0,0
17.06.2018 17:00:00 18,9 11,7 21,0 24,1 18,8 14,6 14 7 40 22 NNW 1015,9 28 6 0,0
17.06.2018 16:00:00 22,9 10,1 24,4 25,2 18,4 14,6 10 5 26 14 W 1014,2 44 38 0,0
17.06.2018 15:00:00 24,1 12,0 29,6 24,5 18,0 14,6 12 6 22 12 W 1014,1 21 40 0,0
17.06.2018 14:00:00 22,9 11,0 27,7 23,8 17,6 14,6 13 7 26 14 WSW 1014,5 16 48 0,0
17.06.2018 13:00:00 22,3 11,0 25,7 23,2 17,2 14,6 15 8 23 12 W 1015,0 18 43 0,0
17.06.2018 12:00:00 22,5 10,9 27,1 21,7 16,9 14,6 15 8 23 12 W 1015,0 17 17 0,0
17.06.2018 11:00:00 22,1 8,9 25,4 21,3 16,7 14,6 12 6 21 11 W 1015,3 6 60 0,0
17.06.2018 10:00:00 21,6 10,9 24,7 19,5 16,5 14,6 4 2 9 5 S 1015,3 16 60 0,0
17.06.2018 09:00:00 18,6 11,2 21,1 17,6 16,6 14,6 2 1 5 3 W 1016,0 21 58 0,0
17.06.2018 08:00:00 15,6 11,0 17,8 16,1 16,8 14,6 2 1 5 3 NNW 1016,7 21 60 0,0
17.06.2018 07:00:00 12,2 10,6 12,7 15,5 17,0 14,6 3 1 5 3 SE 1017,5 10 15 0,0
17.06.2018 06:00:00 11,2 10,2 10,7 15,7 17,2 14,6 0 0 5 3 N 1017,4 8 0 0,0
17.06.2018 05:00:00 11,4 9,9 11,0 16,0 17,5 14,6 4 2 5 3 ESE 1017,3 10 0 0,0
17.06.2018 04:00:00 11,7 9,9 10,8 16,4 17,8 14,6 5 3 6 3 ESE 1017,3 12 0 0,0
17.06.2018 03:00:00 11,9 10,2 10,8 16,9 18,1 14,6 3 2 8 4 E 1017,5 13 0 0,0
17.06.2018 02:00:00 12,4 9,9 10,7 17,7 18,3 14,7 5 3 8 4 N 1017,5 17 0 0,0
17.06.2018 01:00:00 13,9 11,1 12,7 18,4 18,6 14,7 2 1 13 7 E 1017,0 16 0 0,0
17.06.2018 00:00:00 14,6 10,5 13,4 19,0 18,8 14,7 2 1 12 6 N 1016,7 23 0 0,0
16.06.2018 23:00:00 15,3 11,2 13,7 19,9 19,0 14,7 3 2 8 4 NNE 1016,3 28 0 0,0
16.06.2018 22:00:00 16,1 11,7 13,6 21,1 19,0 14,7 4 2 10 5 NNW 1015,6 35 0 0,0
16.06.2018 21:00:00 18,3 11,9 17,1 22,2 19,0 14,7 5 3 10 6 NE 1014,4 40 0 0,0
16.06.2018 20:00:00 20,8 10,4 19,6 23,3 18,9 14,7 3 2 9 5 E 1013,4 48 27 0,0
16.06.2018 19:00:00 22,0 9,4 23,9 24,1 18,6 14,7 6 4 12 7 NW 1013,2 42 27 0,0
16.06.2018 18:00:00 23,2 8,9 27,2 24,4 18,3 14,7 5 3 10 6 NW 1012,9 47 28 0,0
16.06.2018 17:00:00 22,0 7,8 23,2 25,2 17,8 14,7 4 2 18 10 E 1013,5 52 34 0,0
16.06.2018 16:00:00 23,4 7,8 30,4 25,0 17,3 14,7 5 3 14 7 SSW 1013,3 42 45 0,0
16.06.2018 15:00:00 22,9 8,8 28,2 24,4 16,7 14,7 4 2 10 5 E 1013,7 54 42 0,0
16.06.2018 14:00:00 22,3 9,1 27,9 23,8 16,2 14,7 7 4 14 8 NNE 1014,3 52 59 0,0
16.06.2018 13:00:00 22,1 7,9 28,9 21,7 15,8 14,7 6 3 13 7 SSE 1014,8 28 54 -
16.06.2018 12:00:00 19,9 8,2 22,1 19,8 15,5 14,7 10 5 15 8 SW 1015,6 27 20 -
16.06.2018 11:00:00 19,5 8,5 21,0 18,9 15,2 14,7 4 2 15 8 SW 1015,7 22 19 -
16.06.2018 10:00:00 19,5 9,2 21,9 17,7 15,0 14,7 3 2 10 5 NNW 1015,6 43 51 -
16.06.2018 09:00:00 17,5 9,4 20,0 15,5 15,1 14,7 2 1 6 3 W 1016,4 35 60 -
16.06.2018 08:00:00 14,2 8,7 16,8 13,7 15,3 14,7 3 2 4 2 S 1017,2 25 60 -
16.06.2018 07:00:00 10,9 8,3 11,5 12,7 15,6 14,7 3 1 6 3 ESE 1018,3 14 47 -
16.06.2018 06:00:00 7,6 6,7 6,6 12,7 15,9 14,8 2 1 11 6 NNW 1019,0 6 0 -
16.06.2018 05:00:00 7,4 6,6 5,9 13,2 16,2 14,8 4 2 8 4 NE 1019,1 7 0 -
16.06.2018 04:00:00 7,9 7,0 6,5 13,8 16,6 14,8 5 3 8 4 ESE 1018,9 10 0 -
16.06.2018 03:00:00 8,6 7,6 7,0 14,5 16,9 14,8 4 2 8 4 SSW 1019,1 10 0 -
16.06.2018 02:00:00 9,5 8,3 7,5 15,2 17,2 14,8 4 2 7 4 E 1019,0 12 0 -
16.06.2018 01:00:00 10,6 8,7 8,2 16,1 17,5 14,8 0 0 5 3 N 1018,6 18 0 -
16.06.2018 00:00:00 11,4 9,2 8,6 17,0 17,7 14,8 4 2 5 3 N 1018,4 21 0 -
15.06.2018 23:00:00 12,9 9,5 10,0 18,0 17,9 14,8 4 2 10 5 SE 1017,8 31 0 -
15.06.2018 22:00:00 16,7 9,0 14,1 19,2 18,0 14,8 8 4 14 8 ENE 1016,3 40 0 -
15.06.2018 21:00:00 17,4 9,4 15,7 20,3 18,0 14,8 7 4 16 9 ENE 1015,8 44 0 -
15.06.2018 20:00:00 18,8 8,5 17,9 21,4 17,9 14,8 10 5 16 9 NE 1015,1 55 49 -
15.06.2018 19:00:00 20,0 8,3 22,0 22,1 17,7 14,8 8 4 20 11 N 1014,5 60 16 -
15.06.2018 18:00:00 20,1 6,6 21,0 23,3 17,3 14,8 11 6 23 12 NE 1014,6 53 36 -
15.06.2018 17:00:00 21,0 5,1 25,0 23,7 16,9 14,8 9 5 20 11 NNE 1014,6 65 59 -
15.06.2018 16:00:00 19,8 8,0 22,3 23,1 16,5 14,8 9 5 17 9 NNE 1014,9 58 47 -
15.06.2018 15:00:00 19,5 7,2 22,2 22,5 16,0 14,8 10 5 19 10 NNE 1015,3 51 37 -
15.06.2018 14:00:00 19,9 8,2 24,0 21,3 15,6 14,8 6 3 20 11 WNW 1015,3 42 29 -
15.06.2018 13:00:00 18,3 5,8 20,7 20,8 15,1 14,9 6 4 20 11 W 1015,8 70 36 0,0
15.06.2018 12:00:00 17,4 6,3 19,9 19,5 14,8 14,9 4 2 12 7 SSW 1016,1 65 33 0,0
15.06.2018 11:00:00 16,6 8,1 18,8 18,1 14,5 14,9 10 5 16 9 WSW 1016,4 57 44 0,0
15.06.2018 10:00:00 15,3 8,2 17,6 16,2 14,4 14,9 4 2 9 5 E 1016,8 56 34 0,0
15.06.2018 09:00:00 13,6 8,4 15,8 14,5 14,4 14,9 4 2 6 3 WSW 1017,4 37 21 0,0
15.06.2018 08:00:00 11,4 8,0 12,9 13,4 14,5 14,9 3 1 5 3 W 1018,0 32 8 0,0
15.06.2018 07:00:00 9,7 8,4 10,0 12,9 14,7 14,9 0 0 3 2 N 1018,4 14 0 0,0
15.06.2018 06:00:00 9,0 8,2 9,0 12,8 14,9 14,9 0 0 5 3 N 1018,5 16 0 0,0
15.06.2018 05:00:00 8,4 7,7 8,5 12,9 15,1 14,9 2 1 5 3 WNW 1018,5 12 0 0,0
15.06.2018 04:00:00 8,3 7,5 8,2 13,1 15,3 14,9 6 3 8 4 E 1018,6 15 0 0,0
15.06.2018 03:00:00 8,1 7,5 6,1 13,8 15,5 14,9 3 2 5 3 NE 1018,6 6 0 0,0
15.06.2018 02:00:00 9,8 8,9 9,0 14,5 15,6 14,9 2 1 7 4 W 1018,2 12 0 0,0
15.06.2018 01:00:00 10,7 9,4 10,5 15,0 15,8 14,9 3 2 8 5 N 1018,0 15 0 0,0
15.06.2018 00:00:00 11,4 9,3 11,0 15,4 15,9 14,9 3 2 7 4 ENE 1017,9 18 0 0,0
14.06.2018 23:00:00 11,6 9,9 11,0 15,9 15,9 14,9 3 2 6 4 W 1017,8 19 0 0,0
14.06.2018 22:00:00 12,3 10,0 12,2 16,4 15,9 14,9 3 1 6 3 NW 1017,2 18 0 0,0
14.06.2018 21:00:00 12,6 9,4 12,6 17,0 15,9 14,9 4 2 5 3 NE 1016,3 20 0 0,0
14.06.2018 20:00:00 13,4 9,6 13,7 17,6 15,8 14,9 0 0 7 4 N 1015,8 25 0 0,0
14.06.2018 19:00:00 14,3 8,1 15,2 18,0 15,6 14,9 4 2 8 4 NNE 1015,6 28 2 0,0
14.06.2018 18:00:00 14,4 8,2 16,4 17,7 15,5 14,9 4 2 10 6 N 1015,7 30 0 0,0
14.06.2018 17:00:00 14,2 6,9 17,0 17,1 15,4 14,9 3 1 8 4 ENE 1016,0 31 0 0,0
14.06.2018 16:00:00 13,6 7,3 15,5 16,4 15,3 14,9 4 2 9 5 NNW 1016,5 30 0 0,0
14.06.2018 15:00:00 12,9 8,8 14,1 16,2 15,2 14,9 6 4 13 7 W 1016,9 22 0 0,0
14.06.2018 14:00:00 12,9 8,3 14,1 16,2 15,1 14,9 6 4 10 6 WSW 1017,0 27 0 0,0
14.06.2018 13:00:00 13,1 7,6 15,2 15,7 15,0 14,9 4 2 11 6 NNW 1017,0 27 0 0,0
14.06.2018 12:00:00 12,2 8,4 13,4 15,3 15,0 14,9 6 3 13 7 NNW 1017,4 22 0 0,0
14.06.2018 11:00:00 11,9 7,8 13,9 14,7 15,0 14,9 8 5 15 8 NNW 1017,2 31 0 0,0
14.06.2018 10:00:00 11,6 8,9 12,5 14,3 15,0 14,9 5 3 8 4 W 1017,1 22 0 0,0
14.06.2018 09:00:00 11,4 8,8 12,2 14,0 15,1 14,9 4 2 8 5 WNW 1017,0 27 0 0,0
14.06.2018 08:00:00 11,1 7,8 11,8 13,7 15,2 14,9 5 3 9 5 N 1017,0 34 0 0,0
14.06.2018 07:00:00 10,3 8,6 10,8 13,5 15,3 14,9 6 3 9 5 NNE 1016,8 23 0 0,0

tt = Température de l'air
td = dewpoint
tt 5cm = Température de l'air 5cm
tt -5cm = Température de l'air -5cm
tt -20cm = Température de l'air -20cm
tt -100cm = Température de l'air -100cm
ff = Vitesse du vent
fx = gusts
dd = Direction du vent
ppp = reduced air pressure
vv = visibility
sd = Ensoleillement
rr = Quantités de précipitations

stations d'obs. à proximité